Wind_Speed
25 24 26 25 26 27 18 19 23 26 27 27 28 29 28 24 20 21 21 18 17 15 15 19 22 24 24 25 24 24 24 24 24 23 21 20 18 17 18 19 22 23 25 28
22 29 22 15 20 22 20 18 16 17 21 24 28 30 29 35 24 20 22 22 22 21 19 20 23 25 27 27 27 27 26 27 26 24 23 21 20 19 21 23 24 26 27 28
28 16 27 24 19 19 18 19 19 22 15 19 21 26 26 32 41 30 27 25 28 28 24 24 25 27 28 29 29 29 29 28 27 25 23 22 22 23 23 25 26 27 27 24
23 29 19 24 25 22 20 16 19 14 17 18 22 8 24 29 36 45 37 31 31 32 29 27 28 30 31 31 30 30 29 27 25 25 25 24 24 23 24 25 26 23 22 22
21 23 25 16 23 20 18 14 10 13 15 13 18 13 18 23 28 32 35 38 35 35 34 31 31 33 34 32 31 30 29 29 29 24 25 22 21 23 25 23 20 19 21 24
24 18 20 27 20 17 23 13 6 11 15 7 20 21 8 20 26 31 35 36 38 36 35 35 36 35 36 36 36 35 34 33 27 36 18 20 21 20 17 15 16 22 27 30
23 24 22 18 28 25 16 13 3 3 5 4 13 17 21 12 15 23 31 36 40 41 41 44 40 34 38 40 37 36 39 21 17 34 15 13 14 14 18 20 22 27 28 29
17 13 24 20 23 22 23 22 7 5 4 2 13 10 9 15 27 19 23 29 37 37 34 31 33 28 24 31 29 30 27 25 18 20 15 17 16 18 19 22 23 24 25 28
17 11 16 19 23 24 23 28 25 4 3 2 8 10 11 16 22 24 26 27 28 32 36 35 37 40 25 32 30 26 25 19 21 23 21 12 16 23 21 24 26 28 31 31
9 7 12 25 17 28 25 30 12 13 5 4 5 8 11 21 28 28 30 29 27 26 27 25 27 28 27 25 23 20 20 20 8 9 11 14 16 19 23 25 28 29 31 33
16 9 9 23 26 19 17 23 17 10 6 4 3 5 12 18 26 31 29 30 28 27 25 24 28 32 29 17 10 6 9 7 9 13 16 18 21 23 25 27 28 29 31 31
20 10 8 21 11 28 31 25 30 14 7 7 3 3 7 17 24 25 22 24 23 25 21 14 6 4 4 4 4 3 9 12 13 16 19 21 22 25 27 28 28 29 31 33
12 6 6 4 12 13 21 29 29 22 12 9 5 3 10 18 24 23 22 21 21 17 9 5 7 6 4 2 4 8 12 14 17 20 22 23 24 26 28 29 31 33 34 36
14 8 5 5 2 8 14 16 16 18 13 9 14 7 12 21 24 25 26 21 12 12 11 7 5 5 5 6 9 13 17 19 20 21 23 25 27 29 31 33 34 36 38 40
19 15 14 10 5 5 4 15 20 25 20 17 15 14 13 21 27 25 24 22 18 15 11 10 10 9 10 12 15 19 21 22 23 25 27 29 31 32 34 36 37 39 41 42
19 9 12 12 11 12 12 14 17 28 25 22 15 13 9 19 24 25 24 21 17 16 15 15 14 14 15 17 19 22 22 23 25 28 30 32 33 35 36 38 39 42 44 47
19 15 12 6 8 6 12 22 19 19 28 26 24 21 19 18 22 23 22 21 17 17 18 18 18 19 20 21 22 22 25 29 30 31 32 33 35 37 39 41 43 45 47 50
24 19 12 7 11 2 8 8 19 19 18 21 23 23 23 19 20 21 21 20 20 20 20 21 23 23 23 23 25 28 30 31 32 33 35 36 38 40 41 43 46 47 49 50
24 23 10 8 16 6 7 10 15 20 23 25 21 17 19 21 23 26 26 24 23 24 25 26 24 21 24 29 30 31 31 31 32 34 36 38 41 42 44 46 47 49 49 50
19 21 18 10 5 6 6 9 15 14 25 20 21 21 21 24 34 30 25 25 27 28 27 24 22 25 29 30 31 31 31 32 33 35 37 40 42 44 45 47 49 50 49 49
17 17 20 17 9 7 13 9 11 14 3 12 20 21 23 23 22 25 28 29 31 29 24 24 27 28 29 29 30 30 32 33 35 37 40 43 44 44 46 48 48 48 47 45
13 14 15 14 9 11 12 16 18 14 11 6 22 24 24 23 25 26 29 26 23 22 25 27 27 27 28 30 31 32 33 34 37 40 42 43 44 46 46 44 44 44 44 43
10 11 7 11 10 10 5 16 19 15 14 13 17 25 25 23 23 25 22 22 24 25 25 26 26 28 29 29 30 31 32 36 40 42 43 43 44 44 43 42 42 42 42 43
11 13 19 18 15 11 11 6 11 18 9 8 9 19 22 21 21 21 21 22 22 22 24 27 27 27 28 29 30 32 35 39 43 44 43 42 41 40 41 41 41 41 42 45
14 17 18 23 22 19 15 11 9 10 13 14 11 12 14 15 16 17 18 20 22 23 24 24 25 27 28 29 32 35 39 43 43 42 41 40 39 38 37 37 37 39 43 47
13 19 23 20 15 18 19 18 14 12 13 12 13 14 15 16 17 18 19 21 21 21 22 24 26 28 29 32 35 39 42 42 41 39 40 39 38 36 36 36 36 40 43 44
Wind_Direction
205 207 210 207 216 224 237 237 242 243 240 241 250 256 252 243 242 234 234 229 231 227 221 213 211 211 210 212 213 212 212 215 216 219 222 229 237 251 262 266 272 277 282 287
213 221 217 212 228 231 231 229 234 244 244 245 246 247 246 237 237 233 234 228 228 230 229 227 221 218 218 218 218 219 220 223 227 228 232 239 246 254 263 272 278 282 289 293
217 223 229 227 219 224 232 231 238 252 251 239 235 249 243 236 237 233 234 237 230 228 228 233 231 229 226 223 223 223 225 228 232 237 243 249 256 262 272 281 290 297 300 300
221 221 232 226 227 222 229 231 244 252 236 232 238 261 258 241 240 235 238 235 235 232 232 232 234 235 231 229 228 229 231 233 238 245 251 256 265 276 284 289 294 294 294 296
206 214 209 215 227 224 230 214 228 245 247 227 214 231 244 234 233 236 241 234 238 234 235 234 235 236 237 234 233 233 236 242 243 243 250 255 267 275 277 286 288 292 298 302
216 210 211 223 223 209 225 215 225 233 226 238 232 217 230 234 239 234 233 233 234 236 239 246 238 234 234 234 235 237 239 242 236 246 265 264 269 277 280 286 296 303 305 306
205 209 208 212 222 235 221 187 178 184 191 240 182 212 240 217 218 232 241 237 238 241 246 244 239 222 231 233 236 239 244 231 241 242 251 256 266 270 282 287 292 287 285 290
176 200 200 201 218 211 209 204 189 189 190 171 167 223 233 229 229 222 233 240 240 234 234 224 215 203 188 222 220 221 216 216 214 220 252 267 271 290 290 284 291 300 296 297
194 208 207 208 209 210 193 207 214 191 132 162 203 241 224 209 209 213 221 226 233 238 235 229 227 229 187 214 209 204 213 218 234 246 260 263 301 304 301 298 296 294 292 296
206 198 215 214 203 197 203 205 202 198 154 216 225 245 214 208 207 208 211 222 226 224 223 228 237 240 236 234 241 248 245 270 333 331 317 306 305 302 304 303 300 299 298 300
220 229 203 206 218 215 207 206 210 183 178 170 170 233 206 210 217 216 214 219 223 223 229 236 244 241 252 238 219 33 14 336 317 322 322 313 310 304 302 301 302 303 304 307
229 211 161 200 202 220 221 219 205 202 198 205 227 261 207 206 203 210 209 213 221 239 236 233 192 108 118 106 57 344 337 333 321 310 305 303 303 305 307 308 309 309 308 307
181 179 133 167 207 200 195 204 206 199 179 186 172 223 209 201 199 205 206 204 209 246 219 191 184 147 91 24 314 309 306 305 302 301 302 302 303 305 306 307 307 307 306 305
201 189 181 179 160 190 218 222 222 227 197 205 218 219 214 202 195 193 195 205 220 232 209 186 175 196 224 255 281 297 302 303 303 303 301 305 309 308 308 307 306 306 306 306
213 222 223 240 205 172 215 220 217 231 218 208 222 229 235 212 202 204 205 212 218 217 199 201 215 237 253 275 293 301 302 302 304 304 308 309 308 307 306 306 307 307 307 308
203 216 222 239 252 258 259 249 239 223 205 207 217 193 190 198 202 209 215 218 219 205 200 216 233 248 262 275 288 291 294 299 304 306 306 306 306 308 309 308 307 307 309 311
207 202 191 193 220 245 255 237 232 227 230 232 229 236 224 207 207 210 210 211 209 210 220 232 246 257 266 279 286 296 307 307 307 307 307 309 310 309 308 307 310 311 310 311
199 204 186 179 175 216 239 224 223 231 235 235 238 234 239 237 220 209 205 210 209 220 234 245 254 262 275 289 302 307 305 304 305 306 307 309 309 309 309 310 310 310 311 312
192 177 167 176 202 280 222 221 226 229 240 230 229 221 206 209 213 203 202 207 220 233 242 249 257 277 292 298 302 301 300 300 301 304 307 307 308 309 309 309 309 312 314 313
204 221 219 198 197 205 219 230 232 237 244 233 214 204 211 206 209 209 212 223 234 239 247 256 274 286 293 295 295 296 298 300 302 303 305 306 307 309 312 313 315 315 314 315
190 194 207 206 216 248 240 246 215 193 232 223 199 191 201 215 215 214 225 234 238 243 257 272 280 287 288 289 291 294 295 298 302 304 306 309 312 315 315 316 314 313 315 315
195 200 212 224 225 253 235 222 211 223 217 215 200 198 206 216 228 232 230 234 243 255 266 275 279 282 286 289 292 294 296 299 303 308 312 314 315 314 314 313 314 314 315 316
208 209 204 208 221 229 245 229 227 224 230 222 207 206 213 226 236 231 239 249 254 261 267 272 279 284 285 287 290 292 297 303 308 311 314 314 312 312 313 314 316 316 316 318
236 232 234 241 242 249 245 262 231 222 227 227 207 209 218 221 228 233 241 249 254 261 272 279 282 283 285 287 290 295 302 307 310 313 312 310 311 313 315 316 315 316 320 323
250 246 246 248 245 249 250 251 233 215 221 230 217 202 211 221 231 238 245 255 267 274 277 277 279 282 286 291 295 301 307 309 310 309 308 311 313 314 313 314 318 322 325 327
251 256 249 257 254 247 238 231 230 227 221 217 216 218 220 225 236 247 258 267 271 272 278 283 287 289 291 297 303 305 305 306 306 308 310 311 311 313 316 318 320 322 325 328
Height
3111 3114 3116 3121 3126 3129 3134 3137 3141 3145 3149 3152 3153 3155 3161 3164 3166 3169 3173 3175 3177 3179 3180 3180 3182 3183 3184 3186 3187 3188 3190 3191 3191 3193 3194 3195 3196 3196 3195 3194 3193 3191 3190 3188
3107 3109 3115 3118 3124 3127 3131 3134 3137 3140 3144 3147 3147 3149 3153 3159 3162 3163 3167 3170 3172 3174 3175 3176 3179 3180 3181 3182 3183 3185 3186 3187 3189 3189 3190 3191 3191 3191 3190 3189 3188 3186 3185 3183
3106 3108 3112 3116 3121 3125 3126 3130 3135 3138 3139 3141 3143 3144 3146 3150 3154 3157 3160 3164 3167 3168 3169 3172 3174 3176 3178 3179 3180 3181 3182 3184 3185 3186 3187 3187 3187 3185 3185 3184 3182 3180 3178 3176
3100 3104 3108 3113 3117 3122 3124 3127 3131 3133 3135 3136 3139 3137 3137 3142 3144 3149 3154 3157 3160 3163 3165 3166 3168 3171 3173 3174 3175 3176 3178 3179 3180 3181 3182 3182 3181 3180 3180 3179 3176 3174 3172 3171
3095 3099 3105 3108 3112 3118 3120 3124 3126 3130 3130 3131 3132 3137 3129 3134 3136 3141 3145 3150 3154 3156 3159 3160 3162 3165 3168 3169 3170 3171 3173 3175 3175 3174 3175 3174 3173 3174 3173 3172 3171 3169 3167 3166
3094 3097 3102 3105 3110 3114 3116 3121 3124 3126 3127 3128 3126 3130 3123 3125 3130 3133 3138 3142 3146 3148 3151 3154 3156 3158 3160 3162 3163 3165 3165 3167 3166 3165 3167 3166 3167 3167 3168 3166 3165 3165 3162 3160
3089 3093 3096 3102 3107 3109 3112 3118 3122 3125 3125 3120 3121 3125 3120 3124 3128 3130 3133 3135 3138 3141 3143 3145 3148 3146 3151 3153 3155 3157 3158 3155 3157 3154 3163 3161 3162 3161 3162 3161 3159 3159 3158 3155
3085 3092 3093 3097 3100 3103 3108 3113 3114 3115 3119 3119 3121 3116 3115 3118 3122 3127 3128 3130 3133 3134 3136 3137 3136 3136 3141 3142 3143 3146 3147 3146 3150 3149 3152 3154 3153 3154 3155 3156 3150 3148 3148 3147
3082 3085 3086 3090 3094 3102 3103 3108 3112 3114 3116 3117 3116 3112 3114 3114 3114 3118 3122 3124 3127 3129 3131 3131 3132 3132 3134 3134 3138 3138 3138 3140 3142 3146 3144 3149 3149 3150 3150 3149 3145 3142 3141 3140
3080 3084 3085 3087 3090 3094 3097 3102 3107 3110 3114 3117 3110 3109 3106 3107 3110 3112 3116 3120 3123 3125 3127 3128 3130 3130 3131 3134 3136 3137 3137 3137 3138 3142 3144 3145 3144 3143 3141 3140 3138 3136 3132 3129
3079 3081 3085 3086 3087 3089 3093 3095 3101 3103 3105 3104 3108 3103 3101 3103 3106 3109 3113 3116 3119 3123 3125 3126 3129 3130 3132 3133 3134 3135 3137 3139 3140 3140 3139 3140 3138 3138 3136 3134 3131 3127 3124 3121
3076 3079 3080 3083 3083 3086 3090 3092 3096 3098 3102 3103 3103 3099 3098 3101 3105 3110 3113 3116 3120 3123 3122 3123 3124 3127 3129 3131 3134 3135 3135 3134 3136 3138 3138 3137 3134 3133 3129 3126 3124 3120 3117 3112
3073 3075 3077 3082 3085 3085 3084 3088 3090 3093 3098 3098 3100 3098 3097 3100 3102 3108 3112 3116 3117 3118 3119 3122 3124 3125 3127 3129 3132 3134 3135 3135 3135 3135 3133 3131 3129 3126 3123 3119 3116 3113 3109 3105
3071 3073 3075 3078 3078 3081 3084 3086 3089 3092 3094 3095 3094 3095 3097 3097 3101 3106 3109 3113 3113 3116 3119 3121 3124 3126 3128 3130 3130 3131 3132 3131 3130 3129 3127 3124 3121 3118 3115 3111 3107 3105 3101 3097
3070 3071 3074 3077 3079 3079 3081 3083 3086 3087 3089 3092 3091 3093 3093 3094 3099 3103 3106 3109 3110 3113 3116 3120 3123 3125 3126 3128 3127 3127 3127 3126 3124 3123 3119 3117 3114 3111 3109 3105 3101 3097 3093 3088
3067 3069 3071 3073 3074 3075 3077 3079 3081 3083 3085 3086 3089 3090 3092 3093 3098 3100 3103 3106 3108 3111 3113 3117 3120 3122 3123 3124 3124 3124 3123 3121 3117 3115 3113 3109 3107 3104 3101 3096 3093 3088 3085 3077
3063 3067 3070 3072 3072 3074 3075 3073 3075 3078 3082 3084 3085 3087 3090 3093 3095 3097 3100 3104 3107 3110 3112 3115 3118 3121 3120 3121 3119 3117 3114 3113 3109 3107 3106 3102 3097 3095 3092 3088 3084 3078 3071 3066
3060 3065 3068 3069 3072 3076 3069 3069 3072 3074 3077 3078 3079 3083 3086 3090 3094 3097 3100 3104 3105 3109 3111 3112 3114 3115 3115 3114 3111 3108 3106 3104 3102 3099 3097 3092 3090 3087 3084 3079 3074 3068 3060 3054
3059 3062 3065 3067 3068 3067 3066 3067 3068 3068 3068 3070 3074 3079 3081 3085 3090 3092 3096 3100 3103 3106 3107 3107 3108 3108 3108 3107 3104 3101 3100 3098 3094 3092 3088 3084 3082 3079 3076 3070 3064 3055 3048 3043
3056 3059 3063 3064 3065 3066 3062 3063 3065 3066 3063 3065 3070 3074 3079 3081 3082 3088 3092 3096 3098 3100 3102 3102 3102 3102 3101 3099 3098 3095 3093 3091 3087 3085 3081 3077 3074 3069 3064 3058 3049 3043 3038 3031
3054 3057 3059 3060 3060 3058 3058 3060 3061 3064 3065 3061 3067 3071 3075 3078 3082 3087 3089 3091 3094 3096 3097 3098 3096 3095 3095 3094 3092 3090 3087 3084 3080 3076 3071 3067 3062 3058 3052 3045 3039 3033 3026 3021
3052 3055 3055 3057 3057 3057 3054 3056 3058 3060 3059 3060 3063 3068 3072 3075 3079 3083 3085 3088 3091 3092 3092 3091 3090 3090 3088 3086 3085 3083 3079 3075 3070 3066 3061 3056 3052 3048 3042 3036 3029 3022 3016 3010
3051 3051 3050 3052 3051 3050 3050 3052 3053 3055 3057 3060 3061 3065 3070 3073 3076 3080 3083 3085 3086 3086 3086 3085 3085 3083 3081 3079 3077 3073 3070 3066 3062 3057 3053 3048 3044 3038 3031 3025 3018 3012 3006 2999
3045 3046 3046 3048 3047 3048 3050 3051 3052 3054 3057 3059 3061 3064 3068 3071 3074 3076 3078 3080 3080 3080 3080 3078 3076 3074 3072 3071 3069 3066 3061 3058 3054 3049 3044 3039 3033 3027 3019 3013 3007 3001 2995 2988
3040 3039 3040 3040 3042 3044 3046 3048 3050 3052 3055 3057 3059 3062 3065 3068 3070 3072 3073 3073 3073 3073 3072 3070 3069 3067 3066 3064 3060 3057 3053 3049 3043 3038 3033 3027 3021 3016 3011 3005 2999 2992 2985 2976
3032 3032 3032 3034 3036 3037 3040 3043 3046 3049 3052 3055 3057 3060 3062 3064 3065 3066 3067 3068 3067 3066 3065 3063 3062 3060 3058 3055 3051 3047 3044 3039 3033 3027 3022 3017 3012 3006 3001 2996 2992 2984 2977 2971